Location: Arran
(51.9410°N, 101.7372°W)
Time: 22:54:25
(UTC+00:00)

AO-91 - Visible Passes

Search period start: 01 December 2023 00:00
Search period end: 11 December 2023 00:00
Orbit: 445 x 755 km, 97.6° (Epoch: 01 December)

Date Brightness Start Highest point End Pass type
(mag) Time Alt. Az. Time Alt. Az. Time Alt. Az.
01 Dec ? 13:35:28 10° ENE 13:37:21 12° NE 13:39:13 10° NNE visible
02 Dec ? 13:45:47 10° E 13:48:25 14° NE 13:51:02 10° NNE visible
03 Dec ? 13:56:18 10° E 13:59:28 17° NE 14:02:38 10° NNE visible
09 Dec ? 13:30:10 10° ENE 13:30:59 10° NE 13:31:48 10° NE visible
10 Dec ? 13:39:51 10° ENE 13:41:51 12° NE 13:43:49 10° NNE visible
